Meteo pe oră la Bolshie Lupyazhi

Astăzi, 8 Mai, Sâmbătă

Timp Temperatura Precipitaţii Vânt Presiune Umiditate
00:00 +6°C° 0 mm 2 m/s 751 mmHg 69%
01:00 +6°C° 0 mm 2 m/s 751 mmHg 71%
02:00 +5°C° 0 mm 3 m/s 751 mmHg 73%
03:00 +4°C° 0 mm 3 m/s 751 mmHg 75%
04:00 +5°C° 0 mm 3 m/s 751 mmHg 75%
05:00 +6°C° 0 mm 4 m/s 751 mmHg 76%
06:00 +6°C° 0 mm 4 m/s 750 mmHg 76%
07:00 +8°C° 0 mm 5 m/s 750 mmHg 73%
08:00 +9°C° 0 mm 5 m/s 750 mmHg 70%
09:00 +11°C° 0 mm 6 m/s 750 mmHg 67%
10:00 +10°C° 0.2 mm 6 m/s 749 mmHg 68%
11:00 +10°C° 0.2 mm 6 m/s 748 mmHg 69%
12:00 +10°C° 0.2 mm 6 m/s 748 mmHg 71%
13:00 +10°C° 0.1 mm 6 m/s 747 mmHg 70%
14:00 +11°C° 0.1 mm 6 m/s 746 mmHg 69%
15:00 +11°C° 0.1 mm 6 m/s 746 mmHg 68%
16:00 +11°C° 1.4 mm 6 m/s 745 mmHg 76%
17:00 +10°C° 1.4 mm 6 m/s 745 mmHg 84%
18:00 +10°C° 1.4 mm 6 m/s 744 mmHg 92%
19:00 +10°C° 0.8 mm 6 m/s 744 mmHg 93%
20:00 +10°C° 0.8 mm 5 m/s 744 mmHg 94%
21:00 +10°C° 0.8 mm 5 m/s 743 mmHg 95%
22:00 +11°C° 0.1 mm 4 m/s 743 mmHg 95%
23:00 +11°C° 0.1 mm 4 m/s 743 mmHg 95%

Mâine, 9 Mai, Duminică

Timp Temperatura Precipitaţii Vânt Presiune Umiditate
00:00 +10°C° 0.1 mm 3 m/s 743 mmHg 94%
01:00 +10°C° 0 mm 3 m/s 743 mmHg 95%
02:00 +9°C° 0 mm 3 m/s 744 mmHg 95%
03:00 +9°C° 0 mm 3 m/s 744 mmHg 95%
04:00 +9°C° 0 mm 3 m/s 744 mmHg 95%
05:00 +9°C° 0 mm 3 m/s 744 mmHg 95%
06:00 +8°C° 0 mm 3 m/s 745 mmHg 95%
07:00 +6°C° 0.2 mm 4 m/s 746 mmHg 95%
08:00 +5°C° 0.2 mm 4 m/s 746 mmHg 95%
09:00 +3°C° 0.2 mm 5 m/s 747 mmHg 95%
10:00 +3°C° 0.2 mm 5 m/s 748 mmHg 94%
11:00 +3°C° 0.2 mm 5 m/s 749 mmHg 94%
12:00 +3°C° 0.2 mm 5 m/s 750 mmHg 93%
13:00 +5°C° 0 mm 5 m/s 751 mmHg 89%
14:00 +6°C° 0 mm 5 m/s 751 mmHg 85%
15:00 +7°C° 0 mm 5 m/s 752 mmHg 81%
16:00 +7°C° 0 mm 4 m/s 753 mmHg 79%
17:00 +7°C° 0 mm 4 m/s 753 mmHg 77%
18:00 +7°C° 0 mm 4 m/s 754 mmHg 74%
19:00 +7°C° 0 mm 3 m/s 755 mmHg 77%
20:00 +6°C° 0 mm 2 m/s 755 mmHg 80%
21:00 +5°C° 0 mm 2 m/s 756 mmHg 83%
22:00 +4°C° 0 mm 2 m/s 756 mmHg 85%
23:00 +4°C° 0 mm 2 m/s 757 mmHg 87%

Poimâine, 10 Mai, Luni

Timp Temperatura Precipitaţii Vânt Presiune Umiditate
00:00 +3°C° 0 mm 2 m/s 757 mmHg 89%
01:00 +3°C° 0 mm 2 m/s 758 mmHg 90%
02:00 +3°C° 0 mm 2 m/s 758 mmHg 90%
03:00 +2°C° 0 mm 2 m/s 759 mmHg 90%
04:00 +2°C° 0 mm 3 m/s 759 mmHg 87%
05:00 +3°C° 0 mm 3 m/s 760 mmHg 84%
06:00 +3°C° 0 mm 3 m/s 761 mmHg 81%
07:00 +5°C° 0 mm 3 m/s 761 mmHg 71%
08:00 +9°C° 0 mm 3 m/s 761 mmHg 62%
09:00 +11°C° 0 mm 4 m/s 761 mmHg 52%
10:00 +12°C° 0 mm 4 m/s 761 mmHg 48%
11:00 +13°C° 0 mm 4 m/s 762 mmHg 44%
12:00 +14°C° 0 mm 4 m/s 762 mmHg 39%
13:00 +14°C° 0 mm 4 m/s 762 mmHg 39%
14:00 +15°C° 0 mm 4 m/s 761 mmHg 38%
15:00 +15°C° 0 mm 4 m/s 761 mmHg 37%
16:00 +15°C° 0 mm 4 m/s 761 mmHg 42%
17:00 +14°C° 0 mm 3 m/s 762 mmHg 47%
18:00 +14°C° 0 mm 3 m/s 762 mmHg 53%
19:00 +12°C° 0 mm 3 m/s 762 mmHg 58%
20:00 +10°C° 0 mm 3 m/s 762 mmHg 64%
21:00 +8°C° 0 mm 2 m/s 762 mmHg 70%
22:00 +7°C° 0 mm 2 m/s 762 mmHg 72%
23:00 +6°C° 0 mm 2 m/s 763 mmHg 73%

11 Mai, Marţi

Timp Temperatura Precipitaţii Vânt Presiune Umiditate
00:00 +6°C° 0 mm 2 m/s 763 mmHg 75%
01:00 +5°C° 0 mm 2 m/s 763 mmHg 76%
02:00 +5°C° 0 mm 2 m/s 763 mmHg 76%
03:00 +5°C° 0 mm 2 m/s 763 mmHg 76%
04:00 +4°C° 0 mm 3 m/s 763 mmHg 75%
05:00 +5°C° 0 mm 3 m/s 763 mmHg 74%
06:00 +5°C° 0 mm 3 m/s 763 mmHg 73%
07:00 +9°C° 0 mm 3 m/s 763 mmHg 66%
08:00 +11°C° 0 mm 4 m/s 763 mmHg 59%
09:00 +13°C° 0 mm 5 m/s 763 mmHg 53%
10:00 +14°C° 0 mm 5 m/s 763 mmHg 50%
11:00 +16°C° 0 mm 5 m/s 763 mmHg 47%
12:00 +17°C° 0 mm 5 m/s 763 mmHg 44%
13:00 +17°C° 0 mm 5 m/s 763 mmHg 44%
14:00 +19°C° 0 mm 5 m/s 762 mmHg 43%
15:00 +19°C° 0 mm 4 m/s 762 mmHg 43%
16:00 +19°C° 0 mm 4 m/s 762 mmHg 48%
17:00 +18°C° 0 mm 4 m/s 762 mmHg 53%
18:00 +18°C° 0 mm 3 m/s 762 mmHg 58%
19:00 +16°C° 0 mm 3 m/s 762 mmHg 66%
20:00 +13°C° 0 mm 3 m/s 762 mmHg 74%
21:00 +11°C° 0 mm 3 m/s 762 mmHg 82%
22:00 +10°C° 0 mm 3 m/s 762 mmHg 84%
23:00 +9°C° 0 mm 3 m/s 762 mmHg 86%

12 Mai, Miercuri

Timp Temperatura Precipitaţii Vânt Presiune Umiditate
00:00 +9°C° 0 mm 3 m/s 762 mmHg 88%
01:00 +8°C° 0 mm 3 m/s 762 mmHg 89%
02:00 +8°C° 0 mm 2 m/s 762 mmHg 89%
03:00 +7°C° 0 mm 2 m/s 761 mmHg 90%
04:00 +8°C° 0 mm 3 m/s 761 mmHg 87%
05:00 +8°C° 0 mm 3 m/s 761 mmHg 83%
06:00 +8°C° 0 mm 4 m/s 761 mmHg 80%
07:00 +11°C° 0 mm 4 m/s 761 mmHg 72%
08:00 +13°C° 0 mm 5 m/s 761 mmHg 64%
09:00 +15°C° 0 mm 5 m/s 761 mmHg 56%
10:00 +16°C° 0 mm 5 m/s 761 mmHg 54%
11:00 +19°C° 0 mm 5 m/s 761 mmHg 51%
12:00 +20°C° 0 mm 5 m/s 761 mmHg 49%
13:00 +21°C° 0 mm 5 m/s 760 mmHg 50%
14:00 +21°C° 0 mm 5 m/s 760 mmHg 51%
15:00 +21°C° 0 mm 5 m/s 760 mmHg 51%
16:00 +21°C° 0 mm 5 m/s 760 mmHg 55%
17:00 +20°C° 0 mm 4 m/s 760 mmHg 59%
18:00 +20°C° 0 mm 4 m/s 759 mmHg 63%
19:00 +18°C° 0 mm 4 m/s 759 mmHg 69%
20:00 +16°C° 0 mm 3 m/s 759 mmHg 76%
21:00 +13°C° 0 mm 3 m/s 759 mmHg 82%
22:00 +12°C° 0 mm 3 m/s 759 mmHg 84%
23:00 +12°C° 0 mm 3 m/s 759 mmHg 85%

13 Mai, Joi

Timp Temperatura Precipitaţii Vânt Presiune Umiditate
00:00 +11°C° 0 mm 3 m/s 759 mmHg 86%
01:00 +11°C° 0 mm 3 m/s 759 mmHg 87%
02:00 +10°C° 0 mm 3 m/s 759 mmHg 87%
03:00 +10°C° 0 mm 3 m/s 759 mmHg 87%
04:00 +10°C° 0 mm 3 m/s 759 mmHg 84%
05:00 +11°C° 0 mm 3 m/s 759 mmHg 81%
06:00 +11°C° 0 mm 4 m/s 759 mmHg 79%
07:00 +13°C° 0 mm 4 m/s 759 mmHg 72%
08:00 +15°C° 0 mm 4 m/s 758 mmHg 65%
09:00 +19°C° 0 mm 5 m/s 758 mmHg 58%
10:00 +20°C° 0 mm 5 m/s 758 mmHg 55%
11:00 +21°C° 0 mm 5 m/s 758 mmHg 52%
12:00 +22°C° 0 mm 5 m/s 758 mmHg 49%
13:00 +23°C° 0 mm 5 m/s 757 mmHg 49%
14:00 +23°C° 0 mm 5 m/s 757 mmHg 49%
15:00 +25°C° 0 mm 5 m/s 757 mmHg 50%
16:00 +23°C° 0 mm 5 m/s 757 mmHg 53%
17:00 +22°C° 0 mm 5 m/s 757 mmHg 57%
18:00 +22°C° 0 mm 5 m/s 756 mmHg 61%
19:00 +20°C° 0 mm 4 m/s 756 mmHg 66%
20:00 +19°C° 0 mm 4 m/s 756 mmHg 71%
21:00 +17°C° 0 mm 3 m/s 756 mmHg 76%
22:00 +17°C° 0.1 mm 3 m/s 756 mmHg 78%
23:00 +17°C° 0.1 mm 3 m/s 756 mmHg 80%
Arată mai mult

Formular de consimțământ

Meteoprog și furnizorii noștri de servicii pot stoca și accesa date personale, precum cookies, identificatori de dispozitiv sau alte tehnologii similare pe dispozitivul dumneavoastră și procesa astfel de date pentru a personaliza conținutul și reclamele, dar și pentru a oferi caracteristici de social media și pentru a analiza traficul.

  • Stocarea și/sau accesarea informațiilor pe dispozitivul dumneavoastră

    Cookies, identificatori de dispozitiv sau alte informații pot fi stocate sau accesate pe dispozitiv în scopurile indicate mai sus.

  • Reclame și conținut personalizat, evaluarea reclamelor și a conținutului, informații despre audiențe și dezvoltarea produselor

    Reclamele și conținutul pot fi personalizate pe baza unui profil. Pot fi adăugate date suplimentare pentru a personaliza mai bine reclamele și conținutul. Performanța reclamelor și conținutului poate fi măsurată. Pot fi obținute informații despre utilizatorii care au văzut reclamele și conținutul. Aceste date pot fi utilizate pentru a dezvolta sau îmbunătăți experiența utilizatorilor, sistemele și software-ul.

Dând clic pe ‘Sunt de acord’, permiteți utilizarea cookie-urilor menționate, a identificatorilor de dispozitiv, balizelor web sau altor tehnologii similare. Setările pot fi modificate din browser-ul dispozitivului dumneavoastră.

În anumite scopuri, interesele legitime pot prima asupra consimțământului. Puteți citi mai multe informații în acest sens în Politica privind Confidențialitatea Datelor și Cookie.